Wind_Speed
1 4 10 11 12 30 35 26 16 8 9 13 11 12 14 20 24 28 28 25 26 29 29 28 26 25 28 29 28 28 26 27 26
3 23 17 6 13 24 41 29 20 11 10 12 15 15 15 14 20 23 29 30 28 28 30 33 33 31 30 30 29 30 30 29 28
16 19 5 4 6 33 39 27 18 15 14 15 13 13 16 16 15 19 25 28 33 33 33 33 33 34 35 35 34 34 34 32 30
22 20 20 16 4 22 25 21 18 18 16 16 14 17 15 17 17 17 18 23 27 32 35 40 39 35 35 37 38 39 39 37 37
28 27 17 16 18 24 31 36 30 19 15 14 15 18 21 21 19 20 19 19 21 24 26 30 34 36 38 38 39 39 40 39 42
31 30 21 19 24 24 37 41 24 28 30 19 18 21 26 27 22 21 22 21 21 21 22 22 23 24 25 25 33 39 40 40 42
34 35 27 26 26 35 35 42 40 28 39 29 34 27 27 28 27 21 21 24 23 21 19 20 24 27 27 27 27 29 30 33 36
31 41 35 31 32 34 46 42 50 44 35 35 39 27 27 26 26 23 21 20 23 22 20 18 19 22 23 27 30 33 35 38 40
30 37 42 37 35 37 39 41 55 56 50 50 36 28 29 28 26 23 22 20 21 23 22 20 20 18 16 17 18 22 28 32 33
30 39 44 45 38 41 45 46 50 57 55 43 44 34 33 30 28 26 25 23 20 20 21 22 22 20 12 9 12 16 16 12 10
41 45 46 50 54 56 56 56 54 56 53 48 48 48 47 40 31 31 27 26 23 21 21 20 19 19 16 8 10 13 13 11 8
47 47 56 46 54 60 57 52 51 54 53 56 58 57 55 49 40 37 32 28 27 23 21 18 17 15 16 14 11 13 12 10 8
41 49 55 63 59 61 56 55 55 55 57 57 56 57 57 53 45 42 37 32 25 24 21 15 12 14 14 16 15 16 15 16 14
41 48 62 68 69 65 62 61 60 59 59 63 61 58 56 53 48 45 42 34 26 25 18 8 9 7 9 9 9 10 10 11 11
43 48 50 59 65 67 69 66 65 66 65 67 65 63 58 54 50 46 42 34 29 20 11 8 6 5 9 14 26 22 16 13 12
47 47 49 49 49 49 56 63 65 67 69 69 70 67 64 58 55 51 44 38 32 25 18 14 23 30 28 43 39 32 34 24 23
53 52 52 51 51 47 48 54 61 63 67 70 70 69 69 64 60 55 43 39 38 30 19 20 57 48 48 35 43 41 41 43 40
55 54 50 48 47 47 46 46 53 58 62 66 68 71 71 69 63 57 47 45 44 44 37 45 56 49 62 53 47 51 55 51 47
62 55 53 50 47 49 42 45 44 47 53 59 63 66 72 71 67 59 55 52 50 48 47 53 58 60 62 55 58 62 59 51 42
61 55 50 46 51 47 43 44 42 41 45 51 57 62 68 71 69 64 61 57 53 51 45 42 51 53 57 59 58 62 61 57 60
Wind_Direction
357 119 61 249 316 314 304 308 290 270 260 251 247 247 236 230 230 228 228 226 225 226 224 224 229 224 222 224 223 224 227 232 235
225 131 79 110 332 318 304 290 289 278 263 248 264 260 245 229 233 229 229 231 231 233 231 230 230 230 227 228 230 229 229 232 234
245 200 174 81 134 309 301 305 307 296 280 273 253 266 251 242 228 236 235 233 234 232 235 239 236 236 235 231 231 233 234 238 241
252 248 210 189 201 319 315 305 329 322 302 284 288 281 262 255 250 236 235 239 242 241 241 243 246 243 242 241 239 238 239 243 246
245 254 231 187 170 176 274 293 278 277 280 283 289 302 301 275 265 255 246 238 238 241 247 250 250 251 250 243 245 248 247 248 250
256 246 235 221 173 185 190 243 250 270 273 267 267 284 290 281 271 265 255 251 244 239 242 247 249 249 253 253 249 250 252 252 255
244 249 233 224 206 195 206 198 218 253 250 259 264 270 280 269 266 266 261 248 245 244 243 246 249 251 252 253 255 253 251 250 251
236 251 245 228 221 215 215 229 219 227 247 258 263 266 261 258 259 258 260 250 244 242 242 246 251 255 257 254 252 254 257 258 258
231 252 253 241 234 229 233 233 225 235 244 249 254 255 257 255 256 257 257 254 253 244 246 244 245 252 255 256 256 257 257 258 263
246 235 244 250 238 237 233 234 234 227 239 255 244 244 251 256 260 257 256 254 256 258 252 252 248 243 239 238 249 245 242 236 249
256 252 250 241 240 233 227 225 229 236 235 234 239 238 247 250 256 259 257 258 256 253 255 253 259 235 224 221 214 217 209 206 220
255 255 257 246 235 234 237 235 236 237 238 237 243 239 242 250 250 252 255 255 255 253 248 247 250 251 234 213 211 216 207 208 210
248 236 236 244 234 231 239 238 233 234 240 242 243 243 247 249 245 245 245 250 252 254 255 239 267 236 231 230 227 221 213 214 221
246 231 235 239 247 252 250 240 240 236 231 237 241 243 244 245 243 245 243 240 248 253 249 250 339 293 262 274 267 249 252 260 250
257 260 247 241 243 249 251 245 239 237 235 235 236 240 242 243 243 239 241 237 235 246 237 278 321 9 349 319 307 295 276 276 285
253 251 254 255 255 252 252 251 243 238 237 235 236 236 238 238 239 238 231 232 226 221 225 283 302 293 286 304 294 288 279 272 268
253 247 251 258 257 255 256 253 249 242 238 236 235 234 235 236 235 236 229 226 223 208 187 218 258 274 265 238 257 267 272 273 271
258 256 251 246 253 254 255 256 250 244 238 236 234 233 234 235 233 233 229 223 221 211 216 208 214 231 239 239 247 248 255 261 261
256 254 254 252 251 253 255 260 255 247 241 238 236 233 233 233 232 229 227 225 221 220 216 210 218 229 234 243 249 245 248 249 253
255 253 253 252 249 251 251 256 260 254 244 239 236 234 233 231 230 227 225 224 223 224 225 226 236 235 235 240 245 241 239 236 249
Height
10968 10967 10966 10967 10973 10976 10976 10976 10974 10973 10974 10977 10978 10978 10978 10980 10982 10985 10988 10989 10990 10992 10996 10998 10999 11001 11002 11004 11007 11010 11011 11013 11014
10965 10964 10964 10968 10969 10973 10978 10978 10971 10971 10972 10974 10975 10976 10976 10976 10977 10979 10982 10985 10987 10988 10989 10991 10992 10994 10997 10999 11001 11003 11005 11006 11008
10958 10963 10969 10966 10972 10981 10990 10985 10976 10970 10970 10972 10972 10972 10973 10973 10974 10975 10976 10978 10982 10983 10984 10986 10988 10990 10991 10994 10995 10996 10999 11001 11003
10949 10957 10968 10976 10967 10970 10992 10988 10975 10968 10968 10969 10970 10971 10970 10971 10971 10971 10971 10973 10975 10977 10979 10980 10981 10984 10985 10987 10990 10991 10993 10993 10994
10941 10947 10960 10977 10978 10968 10978 10989 10970 10959 10961 10963 10965 10966 10968 10968 10967 10968 10968 10968 10969 10971 10973 10974 10975 10977 10979 10981 10983 10985 10986 10989 10989
10935 10940 10948 10959 10971 10955 10956 10963 10960 10951 10952 10955 10957 10961 10961 10964 10963 10963 10963 10964 10965 10966 10967 10968 10969 10970 10972 10972 10974 10977 10978 10979 10979
10924 10926 10935 10942 10950 10954 10946 10941 10947 10946 10943 10948 10950 10954 10956 10957 10957 10957 10957 10958 10959 10960 10962 10963 10964 10965 10965 10966 10967 10968 10968 10969 10970
10917 10914 10922 10929 10932 10934 10936 10937 10934 10930 10936 10941 10944 10947 10949 10950 10951 10951 10952 10952 10953 10954 10955 10958 10959 10959 10959 10958 10959 10960 10961 10961 10960
10908 10905 10907 10917 10922 10924 10924 10923 10926 10930 10932 10936 10940 10942 10943 10944 10945 10946 10947 10947 10948 10948 10949 10952 10954 10956 10955 10953 10952 10952 10952 10952 10953
10890 10892 10891 10898 10908 10907 10909 10911 10915 10922 10924 10927 10926 10932 10938 10938 10940 10940 10941 10941 10943 10944 10945 10946 10949 10951 10952 10950 10948 10946 10946 10948 10949
10870 10873 10873 10879 10885 10882 10882 10890 10896 10902 10910 10910 10911 10917 10926 10929 10933 10934 10935 10935 10936 10937 10939 10941 10943 10945 10946 10947 10945 10944 10943 10943 10944
10849 10854 10851 10857 10861 10866 10872 10880 10891 10894 10897 10902 10904 10908 10913 10918 10924 10926 10928 10929 10930 10932 10934 10936 10937 10940 10941 10940 10941 10941 10940 10939 10939
10832 10835 10831 10830 10838 10845 10860 10864 10871 10879 10884 10885 10888 10893 10899 10905 10913 10916 10920 10923 10926 10928 10931 10931 10933 10933 10933 10934 10933 10933 10931 10931 10932
10812 10816 10814 10814 10819 10829 10836 10846 10852 10861 10866 10871 10874 10880 10884 10890 10898 10904 10911 10918 10921 10923 10927 10932 10932 10933 10935 10936 10937 10934 10933 10931 10927
10797 10796 10801 10805 10808 10812 10814 10822 10830 10840 10846 10851 10858 10864 10870 10877 10883 10892 10900 10908 10914 10920 10926 10929 10930 10930 10932 10935 10935 10937 10933 10928 10927
10785 10786 10787 10789 10790 10793 10795 10801 10809 10817 10824 10831 10839 10847 10853 10860 10865 10875 10887 10895 10904 10914 10917 10926 10933 10931 10928 10927 10930 10930 10929 10921 10921
10766 10770 10773 10779 10781 10781 10780 10784 10789 10795 10799 10808 10820 10828 10835 10842 10849 10858 10872 10884 10892 10901 10907 10918 10939 10924 10930 10920 10918 10921 10920 10916 10914
10741 10747 10754 10761 10763 10765 10765 10769 10771 10775 10780 10787 10798 10807 10816 10824 10834 10846 10858 10867 10875 10884 10888 10897 10907 10908 10912 10911 10907 10903 10905 10904 10900
10720 10728 10734 10741 10745 10742 10749 10753 10755 10758 10762 10768 10777 10787 10795 10805 10819 10833 10842 10849 10856 10866 10879 10889 10893 10896 10898 10895 10890 10887 10889 10890 10890
10701 10711 10719 10725 10721 10726 10733 10737 10741 10741 10746 10752 10760 10767 10775 10787 10802 10816 10825 10833 10842 10851 10862 10871 10874 10875 10876 10873 10873 10872 10874 10878 10876